Tracking 18945 objects as of 19-Jan-2018
HD Live streaming from Space Station
objects crossing your sky now

FENGYUN 1C DEB

Track FENGYUN 1C DEB now!
10-day predictions


NORAD ID: 32096
Int'l Code: 1999-025CQN
Perigee: 851.2 km
Apogee: 1,062.4 km
Inclination: 99.3 °
Period: 104.0 minutes
Semi major axis: 7327 km
RCS: 0.0045 m2 (small)
Launch date: May 10, 1999
Source: People's Republic of China (PRC)
Launch site: Taiyaun Space Center, China (TSC)

Note: This is SATELLITE DEBRIS
aabbcc
Your satellite tracking list
Your tracking list is empty




NASA's NSSDC Master Catalog

Two Line Element Set (TLE):
1 32096U 99025CQN 18015.07602085 +.00000311 +00000-0 +29589-3 0  9999
2 32096 099.3185 057.9822 0144080 328.0064 031.2403 13.84014919528503
Source of the keplerian elements: AFSPC